EST,Max TemperatureF,Mean TemperatureF,Min TemperatureF,Max Dew PointF,MeanDew PointF,Min DewpointF,Max Humidity, Mean Humidity, Min Humidity, Max Sea Level PressureIn, Mean Sea Level PressureIn, Min Sea Level PressureIn, Max VisibilityMiles, Mean VisibilityMiles, Min VisibilityMiles, Max Wind SpeedMPH, Mean Wind SpeedMPH, Max Gust SpeedMPH,PrecipitationIn, CloudCover, Events, WindDirDegrees
2013-12-1,42,36,30,30,24,18,75,61,49,30.26,30.13,30.01,10,10,10,16,12,22,0.00,3,,263
2013-12-2,42,40,37,34,32,30,87,76,66,30.00,29.90,29.84,10,10,10,9,5,,0.00,8,,218
2013-12-3,46,40,35,43,36,32,100,84,71,30.00,29.93,29.86,10,9,0,12,8,,0.00,5,Fog,230
2013-12-4,53,46,39,46,44,39,100,95,72,30.10,30.04,29.98,10,4,0,13,8,21,0.00,5,Fog-Rain,217
2013-12-5,62,54,46,55,51,46,100,91,72,30.14,30.10,30.05,10,8,0,18,10,25,0.01,3,Fog-Rain,221
2013-12-6,57,48,39,57,51,39,100,100,100,30.12,30.06,29.99,10,2,0,21,12,32,1.50,8,Fog-Rain,242
2013-12-7,39,32,23,39,29,21,100,97,86,30.40,30.28,30.09,10,7,0,18,9,24,0.02,7,Fog-Rain-Snow,308
2013-12-8,30,24,19,30,22,18,100,98,74,30.38,30.27,30.14,10,3,0,14,8,18,0.45,8,Snow,120
2013-12-9,42,35,28,43,36,28,100,100,100,30.15,30.06,30.03,10,2,0,25,11,32,0.31,7,Fog-Rain-Snow,255
2013-12-10,30,24,17,28,22,10,100,93,73,30.11,29.99,29.90,10,7,0,26,15,34,0.18,5,Fog-Snow,280
2013-12-11,30,22,14,21,15,10,93,76,55,30.26,30.19,30.13,10,10,10,28,19,40,0.00,0,,274
2013-12-12,21,16,12,16,6,0,86,66,42,30.25,30.18,30.13,10,10,10,25,20,36,0.00,1,,282
2013-12-13,30,22,15,12,9,7,68,56,40,30.22,30.17,30.13,10,10,10,25,18,32,0.00,0,,265
2013-12-14,35,30,26,36,28,12,100,95,44,30.22,30.01,29.71,10,2,0,18,9,22,0.19,8,Fog-Snow,165
2013-12-15,35,28,21,36,26,19,100,98,86,29.88,29.77,29.64,10,7,0,31,22,41,0.00,8,Snow,279
2013-12-16,33,27,21,28,24,21,100,94,75,30.06,29.99,29.86,10,8,1,24,18,31,0.00,8,Snow,259
2013-12-17,35,30,23,34,29,23,100,94,80,30.03,29.95,29.87,10,6,0,23,18,33,0.00,6,Snow,266
2013-12-18,26,22,17,21,17,12,100,79,55,30.16,30.06,29.92,10,8,1,25,19,37,0.00,3,Snow,279
2013-12-19,50,38,26,25,19,7,55,42,32,30.21,30.18,30.15,10,10,10,26,19,38,0.00,0,,254
2013-12-20,51,46,42,43,29,19,82,48,30,30.16,30.14,30.09,10,10,10,23,15,30,0.00,2,,247
2013-12-21,59,55,51,55,49,39,100,79,62,30.13,30.09,30.03,10,7,1,22,15,36,0.00,5,,217
2013-12-22,60,55,50,57,53,50,100,97,88,30.13,30.06,30.00,10,6,0,25,17,38,0.57,7,Fog-Rain,221
2013-12-23,53,47,39,54,48,39,100,100,100,30.17,30.10,30.04,10,1,0,23,15,32,0.83,8,Rain,271
2013-12-24,8,8,8,3,3,3,79,79,79,30.28,30.17,30.11,10,10,10,22,15,34,0.00,3,,295
2013-12-25,24,16,8,9,2,-9,79,53,30,30.33,30.27,30.19,10,10,10,15,7,,0.00,0,,172
2013-12-26,30,27,24,21,14,7,74,59,46,30.29,30.19,30.14,10,10,10,24,15,33,0.00,2,,269
2013-12-27,37,30,23,16,13,3,68,50,30,30.37,30.32,30.28,10,10,10,16,11,22,0.00,0,,270
2013-12-28,48,39,30,36,16,5,71,43,17,30.32,30.26,30.17,10,10,10,18,14,22,0.00,1,Rain,260
2013-12-29,44,38,33,41,36,34,100,99,76,30.15,29.84,29.65,10,2,0,29,14,38,1.45,8,Fog-Rain-Snow,242
2013-12-30,33,27,21,34,26,21,100,94,86,30.06,29.98,29.86,10,10,1,29,19,38,0.00,8,Snow,279
2013-12-31,26,22,19,23,17,12,100,80,55,30.22,30.10,30.01,10,10,7,34,18,47,0.00,2,Snow,275